K0CFI Weather Reports


Display with metric or nautical units.
time (UTC)temp
F
wind
direction
speed
MPH
gust
MPH
rain 1hr
in
rain 24hr
in
rain mn
in
humidity
%
barometer
mb
20260507130021 53 184 0.0 0.0 0.00 0.00 0.00 90 1016.8
20260507124519 53 184 0.0 0.0 0.00 0.00 0.00 90 1016.7
20260507123018 53 184 0.0 0.0 0.00 0.00 0.00 89 1016.6
20260507121522 54 184 0.0 0.0 0.00 0.00 0.00 89 1016.5
20260507120024 54 184 0.0 0.0 0.00 0.00 0.00 89 1016.4
20260507114525 54 184 0.0 0.0 0.00 0.00 0.00 89 1016.5
20260507113014 54 184 0.0 0.0 0.00 0.00 0.00 89 1016.5
20260507111519 55 184 0.0 0.0 0.00 0.00 0.00 89 1016.7
20260507110024 55 184 0.0 0.0 0.00 0.00 0.00 89 1016.8
20260507104527 55 184 0.0 0.0 0.00 0.00 0.00 88 1016.8
20260507103030 55 184 0.0 0.0 0.00 0.00 0.00 88 1016.8
20260507101523 56 184 0.0 0.0 0.00 0.00 0.00 88 1017.0
20260507100027 56 184 0.0 0.0 0.00 0.00 0.00 88 1017.0
20260507094527 56 184 0.0 0.0 0.00 0.00 0.00 87 1017.2
20260507093026 56 184 0.0 0.0 0.00 0.00 0.00 87 1017.3
20260507091529 57 184 0.0 0.0 0.00 0.00 0.00 87 1017.2
20260507090021 57 184 0.0 0.0 0.00 0.00 0.00 86 1017.5
20260507084522 57 184 0.0 0.0 0.00 0.00 0.00 86 1017.5
20260507081524 58 184 0.0 0.0 0.00 0.00 0.00 86 1017.7
20260507080036 58 184 0.0 0.0 0.00 0.00 0.00 86 1017.9
20260507074528 58 184 0.0 0.0 0.00 0.00 0.00 85 1017.9
20260507073025 58 184 0.0 0.0 0.00 0.00 0.00 85 1018.1
20260507071556 59 184 0.0 0.0 0.00 0.00 0.00 85 1018.1
20260507070030 59 184 0.0 0.0 0.00 0.00 0.00 84 1018.1
20260507064527 59 184 0.0 0.0 0.00 0.00 0.00 84 1018.1
20260507063025 59 184 0.0 0.0 0.00 0.00 0.00 84 1018.1
20260507061525 59 184 0.0 0.0 0.00 0.00 0.00 84 1018.1
20260507060024 60 259 0.0 0.0 0.00 0.00 0.00 84 1018.1
20260507054504 60 259 0.0 0.0 0.00 0.00 0.00 84 1018.3
20260507053004 60 259 0.0 0.0 0.00 0.00 0.00 83 1018.3
20260507051504 60 259 0.0 0.0 0.00 0.00 0.00 83 1018.1
20260507044521 60 259 0.0 0.0 0.00 0.00 0.00 81 1018.0
20260507043011 61 259 0.0 0.0 0.00 0.00 0.00 81 1017.9
20260507040003 61 259 0.0 0.0 0.00 0.00 0.00 81 1017.7
20260507034526 61 259 0.0 1.0 0.00 0.00 0.00 80 1017.6
20260507033014 62 317 0.0 1.0 0.00 0.00 0.00 80 1017.5
20260507031516 62 11 0.0 1.0 0.00 0.00 0.00 80 1017.4
20260507030013 63 340 0.0 1.0 0.00 0.00 0.00 79 1017.3
20260507024521 63 6 0.0 1.0 0.00 0.00 0.00 79 1017.2
20260507023011 64 323 0.0 1.0 0.00 0.00 0.00 76 1017.0
20260507021510 65 42 0.0 2.0 0.00 0.00 0.00 74 1016.9
20260507020017 66 329 0.0 1.0 0.00 0.00 0.00 72 1016.9
20260507013011 68 285 0.0 2.0 0.00 0.00 0.00 62 1016.6
20260507011522 69 292 0.0 1.0 0.00 0.00 0.00 59 1016.6
20260507010022 71 269 0.0 3.0 0.00 0.00 0.00 54 1016.5
20260507004532 73 288 0.0 2.0 0.00 0.00 0.00 52 1016.5
20260507003014 75 257 0.0 4.0 0.00 0.00 0.00 51 1016.4
20260507001516 74 51 0.0 2.0 0.00 0.00 0.00 56 1016.3
20260507000016 75 25 0.0 2.0 0.00 0.00 0.00 56 1016.2
20260506234515 74 25 0.0 1.0 0.00 0.00 0.00 57 1016.2
20260506233016 73 70 1.0 3.0 0.00 0.00 0.00 58 1016.2
20260506230019 73 60 1.0 3.0 0.00 0.00 0.00 57 1016.4
20260506224520 73 25 0.0 3.0 0.00 0.00 0.00 59 1016.5
20260506223013 73 45 0.0 3.0 0.00 0.00 0.00 62 1016.8
20260506221524 73 38 1.0 4.0 0.00 0.00 0.00 60 1017.0
20260506220031 73 65 1.0 4.0 0.00 0.00 0.00 60 1017.1
20260506214527 73 20 1.0 4.0 0.00 0.00 0.00 59 1017.2
20260506213017 73 252 1.0 3.0 0.00 0.00 0.00 60 1017.4
20260506211523 73 302 0.0 2.0 0.00 0.00 0.00 59 1017.4
20260506210022 72 257 1.0 3.0 0.00 0.00 0.00 61 1017.5
20260506204529 72 20 0.0 4.0 0.00 0.00 0.00 61 1017.6
20260506203019 71 257 0.0 4.0 0.00 0.00 0.00 63 1017.6
20260506201528 71 28 0.0 3.0 0.00 0.00 0.00 63 1017.8
20260506200022 70 326 0.0 4.0 0.00 0.00 0.00 64 1017.9
20260506194523 70 284 1.0 3.0 0.00 0.00 0.00 63 1018.2
20260506193022 71 321 0.0 6.0 0.00 0.00 0.00 62 1018.1
20260506191514 71 275 0.0 2.0 0.00 0.00 0.00 61 1018.2
20260506190023 71 302 0.0 2.0 0.00 0.00 0.00 59 1018.3
20260506184525 70 302 0.0 3.0 0.00 0.00 0.00 62 1018.4
20260506183025 69 255 0.0 1.0 0.00 0.00 0.00 59 1018.5
20260506181526 67 250 0.0 3.0 0.00 0.00 0.00 61 1018.7
20260506180016 67 252 0.0 2.0 0.00 0.00 0.00 62 1018.9
20260506174523 66 253 0.0 3.0 0.00 0.00 0.00 61 1019.0
20260506173025 65 253 0.0 1.0 0.00 0.00 0.00 64 1019.0
20260506171526 64 258 0.0 2.0 0.00 0.00 0.00 69 1019.1
20260506170025 63 249 0.0 0.0 0.00 0.00 0.00 69 1019.1
20260506163019 62 246 0.0 0.0 0.00 0.00 0.00 71 1019.3
20260506161526 62 250 0.0 0.0 0.00 0.00 0.00 75 1019.2
20260506160027 61 250 0.0 0.0 0.00 0.00 0.00 77 1019.1
20260506154528 59 252 0.0 0.0 0.00 0.00 0.00 79 1019.1
20260506153028 58 251 0.0 0.0 0.00 0.00 0.00 83 1019.2
20260506151525 57 252 0.0 0.0 0.00 0.00 0.00 85 1019.1
20260506150022 55 252 0.0 0.0 0.00 0.00 0.00 88 1019.3
20260506144518 54 250 0.0 0.0 0.00 0.00 0.00 90 1019.2
20260506143014 52 248 0.0 0.0 0.00 0.00 0.00 92 1019.1
20260506141523 51 248 0.0 0.0 0.00 0.00 0.00 92 1019.0
20260506140021 50 248 0.0 0.0 0.00 0.00 0.00 91 1018.8
20260506134507 50 248 0.0 0.0 0.00 0.00 0.00 91 1018.7
20260506133010 49 248 0.0 0.0 0.00 0.00 0.00 90 1018.5
20260506131512 49 248 0.0 0.0 0.00 0.00 0.00 90 1018.5